Location: Berg
(47.2344°N, 9.5296°E)
Time: 19:27:27
(UTC+00:00)

CUTE-I - Visible Passes

Search period start: 07 December 2021 00:00
Search period end: 17 December 2021 00:00
Orbit: 811 x 824 km, 98.7° (Epoch: 07 December)

Date Brightness Start Highest point End Pass type
(mag) Time Alt. Az. Time Alt. Az. Time Alt. Az.
07 Dec ? 04:49:03 10° NE 04:53:29 25° E 04:57:52 10° SSE visible
07 Dec ? 16:13:31 10° SE 16:18:42 55° ENE 16:23:56 10° N visible
07 Dec ? 17:54:50 10° SW 17:59:03 23° W 18:03:19 10° NW visible
08 Dec ? 04:28:15 10° NE 04:31:40 17° E 04:35:03 10° SE visible
08 Dec ? 06:06:53 10° NNE 06:12:17 76° WNW 06:17:38 10° SSW visible
08 Dec ? 17:32:27 10° SSW 17:37:18 35° W 17:42:12 10° NNW visible
09 Dec ? 04:08:39 10° ENE 04:09:46 11° E 04:10:53 10° E visible
09 Dec ? 05:45:19 10° NNE 05:50:43 74° ESE 05:56:05 10° S visible
09 Dec ? 17:10:24 10° S 17:15:37 53° W 17:20:53 10° NNW visible
10 Dec ? 05:23:52 10° NNE 05:29:06 49° E 05:34:17 10° S visible
10 Dec ? 16:48:39 10° SSE 16:54:00 79° WSW 16:59:24 10° NNW visible
10 Dec ? 18:33:07 10° WSW 18:34:54 12° W 18:36:41 10° WNW visible
11 Dec ? 05:02:34 10° NNE 05:07:24 33° E 05:12:11 10° SSE visible
11 Dec ? 16:27:08 10° SSE 16:32:27 70° ENE 16:37:49 10° N visible
11 Dec ? 18:09:25 10° SW 18:13:01 18° W 18:16:39 10° NW visible
12 Dec ? 04:41:30 10° NE 04:45:38 22° E 04:49:43 10° SE visible
12 Dec ? 06:20:45 10° N 06:26:03 59° WNW 06:31:18 10° SSW visible
12 Dec ? 16:05:52 10° SE 16:10:58 47° ENE 16:16:07 10° N visible
12 Dec ? 17:46:43 10° SSW 17:51:12 27° W 17:55:45 10° NW visible
13 Dec ? 04:20:55 10° NE 04:23:47 14° E 04:26:38 10° ESE visible
13 Dec ? 05:59:06 10° NNE 06:04:31 87° WNW 06:09:54 10° SSW visible
13 Dec ? 17:24:28 10° SSW 17:29:29 40° W 17:34:33 10° NNW visible
14 Dec ? 05:37:35 10° NNE 05:42:56 64° ESE 05:48:15 10° S visible
14 Dec ? 17:02:32 10° S 17:07:49 61° WSW 17:13:10 10° NNW visible
15 Dec ? 05:16:10 10° NNE 05:21:17 42° E 05:26:21 10° S visible
15 Dec ? 16:40:52 10° SSE 16:46:14 90° ENE 16:51:39 10° NNW visible
15 Dec ? 18:24:21 10° WSW 18:27:00 14° W 18:29:40 10° WNW visible
16 Dec ? 04:54:57 10° NE 04:59:34 28° E 05:04:09 10° SSE visible
16 Dec ? 16:19:26 10° SSE 16:24:42 61° ENE 16:30:01 10° N visible
16 Dec ? 18:01:09 10° SW 18:05:08 21° W 18:09:10 10° NW visible
